When you browse on this site, cookies collect data to enhance your experience and personalize the content and advertising you see.
Visit our Privacy Policy to learn more. By continuing to use the site, you agree to this use of cookies and data.
  • în România
  • Lista ţărilor
  • Pe 7 zile
  • Temperatura apei
  • Hartă satelitară
  • Meteo pe hartă
  • Widget-uri
  • user-avatar
    Intrare

    Meteo pe oră la Kumagorsk

    Astăzi, 16 Ianuarie, Miercuri

    Timp Temperatura Precipitaţii Vânt Presiune Umiditate
    00:00 -1°C° 0 mm 3 m/s 717 mmHg 84%
    01:00 -1°C° 0 mm 2 m/s 716 mmHg 81%
    02:00 -1°C° 0 mm 2 m/s 716 mmHg 78%
    03:00 0°C° 0 mm 0 m/s 716 mmHg 82%
    04:00 0°C° 0 mm 0 m/s 716 mmHg 78%
    05:00 +1°C° 0 mm 0 m/s 716 mmHg 74%
    06:00 +2°C° 0 mm 0 m/s 716 mmHg 70%
    07:00 +4°C° 0 mm 1 m/s 716 mmHg 67%
    08:00 +4°C° 0 mm 1 m/s 716 mmHg 63%
    09:00 +5°C° 0 mm 1 m/s 716 mmHg 59%
    10:00 +5°C° 0 mm 2 m/s 716 mmHg 57%
    11:00 +6°C° 0 mm 2 m/s 717 mmHg 56%
    12:00 +7°C° 0 mm 3 m/s 717 mmHg 54%
    13:00 +5°C° 0 mm 5 m/s 718 mmHg 62%
    14:00 +2°C° 0 mm 6 m/s 719 mmHg 71%
    15:00 -1°C° 0 mm 8 m/s 719 mmHg 79%
    16:00 -1°C° 0 mm 7 m/s 720 mmHg 80%
    17:00 -2°C° 0 mm 6 m/s 721 mmHg 81%
    18:00 -2°C° 0 mm 5 m/s 722 mmHg 82%
    19:00 -2°C° 0.1 mm 5 m/s 722 mmHg 81%
    20:00 -2°C° 0.1 mm 4 m/s 723 mmHg 81%
    21:00 -3°C° 0.1 mm 4 m/s 723 mmHg 81%
    22:00 -3°C° 0 mm 4 m/s 724 mmHg 79%
    23:00 -2°C° 0 mm 3 m/s 724 mmHg 78%

    Mâine, 17 Ianuarie, Joi

    Timp Temperatura Precipitaţii Vânt Presiune Umiditate
    00:00 -2°C° 0 mm 3 m/s 724 mmHg 76%
    01:00 -2°C° 0 mm 2 m/s 725 mmHg 76%
    02:00 -2°C° 0 mm 2 m/s 725 mmHg 77%
    03:00 -2°C° 0 mm 2 m/s 725 mmHg 77%
    04:00 -1°C° 0.1 mm 1 m/s 726 mmHg 77%
    05:00 -1°C° 0.1 mm 1 m/s 726 mmHg 78%
    06:00 -1°C° 0.1 mm 1 m/s 727 mmHg 78%
    07:00 0°C° 0 mm 1 m/s 727 mmHg 77%
    08:00 0°C° 0 mm 1 m/s 728 mmHg 76%
    09:00 0°C° 0 mm 1 m/s 728 mmHg 75%
    10:00 +1°C° 0 mm 1 m/s 729 mmHg 71%
    11:00 +1°C° 0 mm 1 m/s 729 mmHg 67%
    12:00 +2°C° 0 mm 1 m/s 729 mmHg 63%
    13:00 +2°C° 0 mm 1 m/s 729 mmHg 63%
    14:00 +2°C° 0 mm 1 m/s 729 mmHg 64%
    15:00 +1°C° 0 mm 2 m/s 729 mmHg 64%
    16:00 -1°C° 0 mm 2 m/s 730 mmHg 70%
    17:00 -2°C° 0 mm 2 m/s 731 mmHg 76%
    18:00 -2°C° 0 mm 2 m/s 731 mmHg 82%
    19:00 -1°C° 0 mm 1 m/s 731 mmHg 83%
    20:00 -1°C° 0 mm 1 m/s 732 mmHg 83%
    21:00 -1°C° 0 mm 1 m/s 732 mmHg 84%
    22:00 -1°C° 0 mm 1 m/s 732 mmHg 82%
    23:00 -1°C° 0 mm 1 m/s 733 mmHg 79%

    Poimâine, 18 Ianuarie, Vineri

    Timp Temperatura Precipitaţii Vânt Presiune Umiditate
    00:00 -1°C° 0 mm 0 m/s 733 mmHg 77%
    01:00 -1°C° 0 mm 0 m/s 733 mmHg 75%
    02:00 -1°C° 0 mm 0 m/s 733 mmHg 73%
    03:00 0°C° 0 mm 1 m/s 734 mmHg 71%
    04:00 0°C° 0 mm 1 m/s 734 mmHg 69%
    05:00 -1°C° 0 mm 0 m/s 734 mmHg 67%
    06:00 -1°C° 0 mm 0 m/s 734 mmHg 65%
    07:00 -1°C° 0 mm 0 m/s 734 mmHg 61%
    08:00 0°C° 0 mm 0 m/s 734 mmHg 58%
    09:00 0°C° 0 mm 0 m/s 734 mmHg 54%
    10:00 +2°C° 0 mm 0 m/s 734 mmHg 50%
    11:00 +3°C° 0 mm 0 m/s 733 mmHg 46%
    12:00 +4°C° 0 mm 0 m/s 733 mmHg 42%
    13:00 +5°C° 0 mm 1 m/s 733 mmHg 44%
    14:00 +5°C° 0 mm 1 m/s 732 mmHg 47%
    15:00 +5°C° 0 mm 1 m/s 732 mmHg 49%
    16:00 +4°C° 0 mm 1 m/s 732 mmHg 55%
    17:00 +2°C° 0 mm 1 m/s 733 mmHg 61%
    18:00 -1°C° 0 mm 2 m/s 733 mmHg 67%
    19:00 +1°C° 0 mm 1 m/s 733 mmHg 66%
    20:00 +1°C° 0 mm 1 m/s 733 mmHg 66%
    21:00 +1°C° 0 mm 1 m/s 733 mmHg 65%
    22:00 +1°C° 0 mm 1 m/s 733 mmHg 63%
    23:00 0°C° 0 mm 0 m/s 732 mmHg 61%

    19 Ianuarie, Sâmbătă

    Timp Temperatura Precipitaţii Vânt Presiune Umiditate
    00:00 0°C° 0 mm 0 m/s 732 mmHg 59%
    01:00 0°C° 0 mm 0 m/s 732 mmHg 56%
    02:00 0°C° 0 mm 0 m/s 732 mmHg 53%
    03:00 0°C° 0 mm 0 m/s 732 mmHg 51%
    04:00 +1°C° 0 mm 1 m/s 732 mmHg 48%
    05:00 +1°C° 0 mm 1 m/s 732 mmHg 44%
    06:00 +1°C° 0 mm 1 m/s 732 mmHg 41%
    07:00 +2°C° 0 mm 1 m/s 732 mmHg 38%
    08:00 +2°C° 0 mm 1 m/s 732 mmHg 35%
    09:00 +3°C° 0 mm 1 m/s 733 mmHg 32%
    10:00 +4°C° 0 mm 1 m/s 732 mmHg 30%
    11:00 +6°C° 0 mm 1 m/s 732 mmHg 27%
    12:00 +7°C° 0 mm 1 m/s 732 mmHg 24%
    13:00 +6°C° 0 mm 0 m/s 732 mmHg 28%
    14:00 +6°C° 0 mm 0 m/s 732 mmHg 32%
    15:00 +6°C° 0 mm 0 m/s 732 mmHg 36%
    16:00 +5°C° 0 mm 0 m/s 732 mmHg 38%
    17:00 +4°C° 0 mm 0 m/s 732 mmHg 40%
    18:00 +2°C° 0 mm 0 m/s 732 mmHg 42%
    19:00 +2°C° 0 mm 0 m/s 732 mmHg 43%
    20:00 +2°C° 0 mm 0 m/s 732 mmHg 44%
    21:00 +2°C° 0 mm 0 m/s 733 mmHg 44%
    22:00 +2°C° 0 mm 0 m/s 733 mmHg 45%
    23:00 +2°C° 0 mm 0 m/s 733 mmHg 45%

    20 Ianuarie, Duminică

    Timp Temperatura Precipitaţii Vânt Presiune Umiditate
    00:00 +2°C° 0 mm 0 m/s 733 mmHg 45%
    01:00 +2°C° 0 mm 0 m/s 733 mmHg 46%
    02:00 +2°C° 0 mm 0 m/s 733 mmHg 46%
    03:00 +2°C° 0 mm 0 m/s 733 mmHg 47%
    04:00 +2°C° 0 mm 0 m/s 733 mmHg 49%
    05:00 +1°C° 0 mm 0 m/s 733 mmHg 50%
    06:00 +1°C° 0 mm 0 m/s 733 mmHg 52%
    07:00 +2°C° 0 mm 0 m/s 734 mmHg 55%
    08:00 +3°C° 0 mm 1 m/s 734 mmHg 58%
    09:00 +3°C° 0 mm 1 m/s 734 mmHg 61%
    10:00 +3°C° 0 mm 1 m/s 734 mmHg 61%
    11:00 +3°C° 0 mm 2 m/s 734 mmHg 62%
    12:00 +4°C° 0 mm 2 m/s 733 mmHg 63%
    13:00 +4°C° 0 mm 2 m/s 733 mmHg 64%
    14:00 +4°C° 0 mm 2 m/s 733 mmHg 65%
    15:00 +4°C° 0 mm 2 m/s 732 mmHg 66%
    16:00 +3°C° 0 mm 2 m/s 733 mmHg 71%
    17:00 +2°C° 0 mm 2 m/s 733 mmHg 77%
    18:00 +1°C° 0 mm 2 m/s 733 mmHg 82%
    19:00 -1°C° 0 mm 2 m/s 733 mmHg 83%
    20:00 -1°C° 0 mm 2 m/s 733 mmHg 84%
    21:00 -1°C° 0 mm 2 m/s 733 mmHg 85%
    22:00 -1°C° 0 mm 2 m/s 733 mmHg 84%
    23:00 -1°C° 0 mm 2 m/s 732 mmHg 84%

    21 Ianuarie, Luni

    Timp Temperatura Precipitaţii Vânt Presiune Umiditate
    00:00 -2°C° 0 mm 2 m/s 732 mmHg 83%
    01:00 -2°C° 0 mm 2 m/s 732 mmHg 82%
    02:00 -2°C° 0 mm 2 m/s 732 mmHg 81%
    03:00 -2°C° 0 mm 2 m/s 732 mmHg 81%
    04:00 -2°C° 0 mm 2 m/s 731 mmHg 79%
    05:00 -2°C° 0 mm 2 m/s 731 mmHg 78%
    06:00 -2°C° 0 mm 2 m/s 731 mmHg 77%
    07:00 -1°C° 0 mm 2 m/s 731 mmHg 73%
    08:00 -1°C° 0 mm 2 m/s 730 mmHg 70%
    09:00 +1°C° 0 mm 2 m/s 730 mmHg 66%
    10:00 +2°C° 0 mm 2 m/s 730 mmHg 60%
    11:00 +4°C° 0 mm 2 m/s 729 mmHg 53%
    12:00 +5°C° 0 mm 2 m/s 728 mmHg 46%
    13:00 +6°C° 0 mm 2 m/s 728 mmHg 48%
    14:00 +6°C° 0 mm 2 m/s 727 mmHg 49%
    15:00 +6°C° 0 mm 2 m/s 727 mmHg 51%
    16:00 +5°C° 0 mm 2 m/s 727 mmHg 55%
    17:00 +4°C° 0 mm 2 m/s 727 mmHg 59%
    18:00 +3°C° 0 mm 1 m/s 727 mmHg 62%
    19:00 +4°C° 0 mm 1 m/s 727 mmHg 61%
    20:00 +4°C° 0 mm 1 m/s 727 mmHg 59%
    21:00 +4°C° 0 mm 1 m/s 727 mmHg 57%
    22:00 +3°C° 0 mm 2 m/s 727 mmHg 63%
    23:00 +1°C° 0 mm 3 m/s 727 mmHg 69%
    Arată mai mult